Погода в Кричеве

Беларусь     53°41′44″N   31°42′24″E
темп.,
°C
ветер,
м/с
пор.,
м/с
влажн.,
%
обл.,
%
осадки,
мм/ч
давл.,
гПа
погр.,
м
24 июля, сб
сб2400:00+16сз358236 0.0 101287
03:00+13сз229325 0.0 101318
06:00+14с119126 0.0 101315
09:00+19в117277 0.0 1014342
12:00+23з22544 0.3 10141337
15:00+25ссв234142 0.4 10142190
18:00+22в445541 0.0 1015717
21:00+18вюв337027 0.0 101744
25 июля, вс
вс2500:00+15вюв33795 0.0 101836
03:00+13в33820 0.0 101930
06:00+13вюв33780 0.0 101957
09:00+20вюв34610 0.0 1020424
12:00+24юв44520 0.0 10201246
15:00+25юв334920 0.0 10201542
18:00+23ююв455930 0.0 1020445
21:00+18юв337417 0.0 102148
26 июля, пн
пн2600:00+17ююв358027 0.0 102271
03:00+16ююв33885 0.0 102243
06:00+15юв22910 0.0 102336
09:00+21юв34673 0.0 1023399
12:00+25юв33514 0.0 10231208
15:00+27юв32437 0.0 10222077
18:00+26юв335012 0.0 10211135
21:00+19ююв36790 0.0 102289
27 июля, вт
вт2700:00+17ююв34850 0.0 102345
03:00+18ююв248099 0.0 102393
06:00+18юв237793 0.0 102379
09:00+22ююв34659 0.0 1022443
12:00+26ююв45465 0.0 10221399
15:00+28ю563981 0.0 10202661
18:00+27ююв464787 0.0 1020845
21:00+21юв47677 0.0 1019124
28 июля, ср
ср2800:00+19ююв4106827 0.0 1019168
03:00+18ююв4127216 0.0 1018239
06:00+18ююв41273100 0.0 1017271
09:00+23ю61155100 0.0 1016535
12:00+20ю51162100 0.0 1015572
15:00+22ююв913615 0.1 1013881
18:00+25ююв710594 0.0 10111387
21:00+21ююв511730 0.0 1010485